CAPE
0 0 0 0 0 0 0 55 128 6 4 1 175 158 198 143 39 3 3 0 9 5 0 4 20 23 129 0 121 109 77 783 289 974 741 673 641 937 628 593 507 1274 566 87
0 0 0 0 0 0 0 0 148 55 27 44 148 212 199 195 42 11 7 3 5 0 1 0 3 17 80 70 87 540 184 520 121 592 872 834 836 862 704 487 669 1143 940 622
0 0 0 0 0 0 0 0 87 51 60 90 78 72 276 237 113 123 77 49 6 3 0 0 0 3 20 83 203 694 558 605 860 253 189 197 82 1 462 499 1021 1358 1393 1082
0 0 0 0 0 0 0 0 36 89 53 21 13 5 0 131 173 147 56 96 42 7 3 0 0 0 0 78 304 821 690 426 440 829 194 100 7 0 269 756 1120 1049 1179 1447
0 0 0 0 0 0 0 122 221 122 32 235 93 10 111 50 197 148 77 205 118 45 18 5 1 0 4 94 274 823 580 403 124 757 360 48 91 356 119 466 1063 1328 1220 1444
0 0 0 0 0 0 0 20 111 84 38 7 143 137 51 53 218 337 378 264 239 129 85 68 31 9 2 49 247 511 899 557 393 654 796 562 290 77 299 474 940 1003 1244 1272
0 0 0 0 0 0 0 0 0 39 23 0 0 130 82 60 32 120 71 61 367 181 111 104 135 105 13 29 265 425 896 1020 1022 809 908 610 687 212 600 597 548 780 1218 1204
0 0 0 0 0 0 0 0 0 2 0 0 28 91 52 39 24 213 447 299 163 137 48 93 146 109 69 11 186 446 733 1091 902 998 1152 919 750 525 343 640 328 712 526 731
0 0 0 0 0 0 1 0 0 0 0 13 228 43 0 1 0 137 283 113 145 257 859 343 92 149 153 10 163 478 885 911 903 1576 1268 1712 1031 858 981 958 1227 656 844 1612
15 0 0 0 0 0 0 0 0 0 4 76 160 87 56 139 259 262 164 101 82 193 592 477 471 361 93 156 124 565 586 1084 1230 1056 1602 1720 1368 1100 1169 1458 1507 899 685 821
0 0 1 27 0 0 0 0 0 0 0 31 79 57 127 68 55 66 52 17 15 37 73 287 84 22 35 95 79 28 30 191 243 1308 1590 1656 1770 1659 1564 1535 1747 1366 359 640
0 0 0 0 0 0 0 0 0 0 0 25 105 68 41 11 16 5 4 2 1 2 3 25 58 23 12 4 30 96 137 134 249 131 367 1711 1901 1820 1740 1794 2061 1417 889 644
0 0 0 5 0 0 0 0 0 0 0 59 35 80 212 69 42 2 0 4 0 1 3 1 1 2 3 2 14 54 3 100 173 122 167 535 1914 2003 1780 1829 2035 2098 1834 1038
0 0 0 0 0 0 0 0 0 0 11 71 68 174 78 89 0 0 0 1 0 0 0 0 0 0 0 0 0 2 2 23 30 52 92 164 155 405 1249 2123 2117 2367 2286 2099
0 0 0 0 0 0 0 0 0 0 228 3 84 274 143 149 6 0 0 0 0 0 0 0 0 0 0 0 0 0 0 4 0 2 18 23 82 221 138 243 1451 1915 2087 2333
0 0 0 0 0 0 0 0 0 0 483 135 132 254 84 32 0 0 8 5 4 1 1 3 0 0 0 0 0 0 0 0 0 0 2 17 9 5 17 91 187 1315 1508 1559
0 0 0 0 0 0 0 0 0 0 448 445 342 131 46 4 0 0 1 0 0 0 0 0 0 0 0 0 0 0 0 0 0 0 0 0 3 0 0 3 53 100 143 999
0 0 0 0 0 0 0 0 0 0 345 485 327 176 113 28 0 0 0 0 0 0 0 0 0 0 0 0 0 1 0 0 0 0 0 0 0 0 0 0 0 0 0 83
0 0 0 0 0 0 0 0 0 25 759 446 404 288 2 0 0 0 0 0 0 0 0 0 0 0 0 0 0 0 0 0 0 0 0 0 0 0 0 0 0 0 0 0
0 0 0 0 18 1 0 0 0 0 501 76 0 0 0 0 0 0 0 0 0 0 0 0 0 0 0 0 0 0 0 0 0 0 0 0 0 0 0 0 0 0 0 0
0 0 0 0 11 12 0 0 0 0 22 202 5 0 0 0 0 0 0 0 0 0 0 0 0 0 0 0 0 0 0 0 0 0 0 0 0 0 0 0 0 0 0 0
30 0 0 0 0 43 0 0 12 69 13 0 1 0 0 0 0 0 0 0 0 0 0 0 0 0 0 0 0 0 0 0 0 0 0 0 0 0 0 0 0 0 0 0
48 6 56 94 58 0 0 0 0 0 2 0 0 0 0 0 0 0 0 0 0 0 0 0 0 0 0 0 0 0 0 0 0 0 0 0 0 0 0 0 0 0 0 0
76 10 9 99 144 28 0 0 0 0 0 0 0 0 0 0 0 0 0 0 0 0 0 0 0 0 0 0 0 0 0 0 0 0 0 0 0 0 0 0 0 0 0 0
187 41 0 5 55 18 0 0 0 0 0 0 0 0 0 0 0 0 0 0 0 0 0 0 0 0 0 0 0 0 0 0 0 0 0 0 0 0 0 0 0 0 0 0
48 7 30 142 41 36 74 0 0 0 0 0 0 0 0 0 0 0 0 0 0 0 0 0 0 0 0 0 0 0 0 0 0 0 0 0 0 0 0 0 0 0 0 0
CIN
-0 -0 -0 -0 -0 -0 -0 -18 -30 -70 -201 -43 -33 -119 -84 -51 -14 -12 -12 -0 -15 -30 -0 -29 -35 -51 -60 -0 -67 -66 -55 -46 -53 -45 -47 -56 -52 -64 -90 -83 -57 -32 -110 -144
-0 -0 -0 -0 -0 -0 -0 -0 -160 -229 -192 -161 -1 -37 -31 -25 -43 -47 -21 -18 -17 -4 -21 -0 -23 -53 -55 -67 -59 -54 -73 -60 -57 -71 -55 -79 -77 -70 -85 -119 -125 -38 -78 -128
-0 -0 -0 -0 -0 -0 -0 -0 -65 -98 -194 -186 -66 -60 -11 -21 -11 -32 -39 -24 -29 -27 -0 -0 -0 -26 -66 -70 -64 -44 -55 -43 -35 -146 -171 -172 -187 -14 -115 -60 -43 -44 -28 -47
-0 -0 -0 -0 -0 -0 -0 -0 -14 -154 -149 -150 -99 -8 -0 -20 -40 -32 -38 -35 -20 -33 -26 -0 -0 -0 -0 -86 -74 -60 -38 -54 -55 -40 -89 -144 -28 -0 -134 -68 -52 -54 -29 -25
-0 -0 -0 -0 -0 -0 -0 -30 -40 -73 -94 -74 -91 -45 -43 -78 -12 -36 -36 -21 -21 -38 -26 -35 -43 -0 -18 -88 -92 -67 -76 -58 -70 -31 -101 -174 -155 -116 -175 -104 -57 -51 -40 -25
-0 -0 -0 -0 -0 -0 -0 -10 -35 -64 -149 -53 -64 -59 -84 -83 -49 -45 -21 -25 -25 -41 -45 -25 -53 -71 -46 -95 -87 -78 -63 -73 -66 -49 -36 -62 -88 -157 -110 -86 -46 -57 -58 -39
-0 -0 -0 -0 -0 -0 -0 -0 -0 -19 -36 -0 -0 -59 -221 -198 -306 -179 -137 -51 -20 -57 -35 -28 -44 -64 -78 -127 -82 -91 -60 -46 -42 -45 -44 -57 -54 -92 -65 -88 -96 -67 -47 -48
-0 -0 -0 -0 -0 -0 -0 -0 -0 -19 -0 -0 -63 -210 -235 -322 -241 -141 -117 -84 -73 -120 -201 -123 -48 -58 -63 -91 -98 -80 -82 -44 -42 -37 -38 -58 -57 -90 -115 -89 -168 -102 -126 -89
-1 -0 -0 -0 -0 -0 -7 -0 -0 -0 -0 -21 -143 -248 -0 -116 -169 -159 -86 -205 -58 -46 -104 -175 -188 -54 -61 -53 -95 -102 -99 -79 -71 -37 -45 -35 -47 -60 -67 -74 -87 -102 -118 -101
-48 -0 -0 -0 -0 -0 -0 -0 -0 -0 -25 -25 -109 -130 -155 -133 -89 -59 -22 -124 -106 -146 -134 -156 -128 -145 -215 -135 -144 -101 -146 -87 -96 -78 -53 -38 -51 -54 -58 -43 -43 -101 -122 -145
-0 -0 -13 -3 -0 -0 -0 -0 -0 -0 -0 -34 -31 -44 -76 -35 -78 -83 -80 -202 -327 -276 -247 -147 -185 -223 -195 -134 -90 -256 -152 -141 -132 -60 -67 -52 -37 -45 -48 -37 -45 -58 -171 -133
-0 -0 -1 -0 -0 -0 -0 -0 -0 -0 -0 -117 -93 -71 -65 -23 -63 -130 -8 -0 -0 -0 -43 -348 -247 -229 -235 -13 -69 -121 -80 -95 -127 -102 -112 -47 -60 -35 -31 -32 -26 -56 -101 -166
-0 -0 -0 -67 -0 -0 -0 -0 -0 -0 -0 -41 -17 -73 -50 -79 -83 -61 -2 -0 -0 -0 -0 -0 -0 -0 -0 -0 -151 -110 -62 -130 -68 -42 -164 -114 -34 -29 -37 -47 -37 -37 -48 -111
-0 -0 -27 -0 -0 -0 -0 -0 -0 -0 -45 -63 -70 -43 -12 -59 -39 -0 -0 -0 -0 -0 -0 -0 -0 -0 -0 -0 -0 -0 -0 -152 -134 -67 -133 -137 -203 -144 -86 -42 -38 -37 -37 -31
-0 -0 -0 -0 -0 -0 -0 -0 -0 -0 -69 -128 -58 -34 -10 -43 -176 -0 -0 -0 -0 -0 -0 -0 -0 -0 -0 -0 -0 -0 -0 -0 -0 -164 -138 -166 -164 -145 -274 -208 -61 -32 -38 -27
-0 -0 -0 -0 -0 -0 -0 -0 -0 -0 -88 -136 -106 -39 -56 -93 -0 -0 -2 -0 -0 -2 -1 -2 -0 -0 -0 -0 -0 -0 -0 -0 -0 -0 -87 -196 -113 -163 -251 -208 -131 -61 -22 -20
-0 -0 -0 -0 -0 -0 -0 -0 -0 -0 -41 -67 -84 -127 -49 -49 -0 -0 -1 -1 -0 -0 -0 -0 -0 -0 -0 -0 -0 -0 -0 -0 -0 -0 -0 -0 -0 -0 -87 -65 -259 -265 -250 -104
-0 -0 -0 -0 -0 -0 -0 -0 -0 -0 -20 -125 -175 -90 -56 -29 -1 -0 -0 -0 -0 -0 -0 -0 -0 -0 -0 -0 -0 -19 -0 -0 -0 -0 -0 -0 -0 -0 -0 -0 -0 -0 -0 -238
-0 -0 -0 -0 -0 -0 -0 -0 -0 -15 -43 -124 -122 -10 -10 -0 -0 -0 -0 -0 -0 -0 -0 -0 -0 -0 -0 -0 -0 -0 -0 -0 -0 -0 -0 -0 -0 -0 -0 -0 -0 -0 -0 -0
-0 -0 -0 -0 -28 -1 -0 -0 -0 -0 -27 -125 -0 -0 -0 -0 -0 -0 -0 -0 -0 -0 -0 -0 -0 -0 -0 -0 -0 -0 -0 -0 -0 -0 -0 -0 -0 -0 -0 -0 -0 -0 -0 -0
-0 -0 -0 -0 -31 -18 -0 -0 -0 -0 -25 -58 -93 -0 -0 -0 -0 -0 -0 -0 -0 -0 -0 -0 -0 -0 -0 -0 -0 -0 -0 -0 -0 -0 -0 -0 -0 -0 -0 -0 -0 -0 -0 -0
-20 -0 -0 -0 -0 -20 -0 -0 -51 -147 -208 -0 -32 -0 -0 -0 -0 -0 -0 -0 -0 -0 -0 -0 -0 -0 -0 -0 -0 -0 -0 -0 -0 -0 -0 -0 -0 -0 -0 -0 -0 -0 -0 -0
-14 -28 -42 -50 -51 -2 -0 -0 -18 -0 -251 -0 -0 -0 -0 -0 -0 -0 -0 -0 -0 -0 -0 -0 -0 -0 -0 -0 -0 -0 -0 -0 -0 -0 -0 -0 -0 -0 -0 -0 -0 -0 -0 -0
-23 -32 -37 -32 -12 -30 -0 -0 -0 -0 -0 -0 -0 -0 -0 -0 -0 -0 -0 -0 -0 -0 -0 -0 -0 -0 -0 -0 -0 -0 -0 -0 -0 -0 -0 -0 -0 -0 -0 -0 -0 -0 -0 -0
-37 -26 -0 -22 -62 -33 -2 -0 -0 -0 -0 -0 -0 -0 -0 -0 -0 -0 -0 -0 -0 -0 -0 -0 -0 -0 -0 -0 -0 -0 -0 -0 -0 -0 -0 -0 -0 -0 -0 -0 -0 -0 -0 -0
-82 -60 -48 -26 -26 -25 -17 -0 -0 -0 -0 -0 -0 -0 -0 -0 -0 -0 -0 -0 -0 -0 -0 -0 -0 -0 -0 -0 -0 -0 -0 -0 -0 -0 -0 -0 -0 -0 -0 -0 -0 -0 -0 -0
Wind_Speed
7 4 8 11 12 16 12 11 8 7 8 7 9 18 14 10 10 15 14 12 10 14 9 12 16 15 14 9 9 9 10 8 5 3 3 3 2 3 2 3 6 3 5 4
4 8 12 15 19 19 18 13 11 6 4 9 17 15 12 11 10 14 8 7 13 13 12 10 15 15 15 12 9 9 9 8 5 3 2 3 3 3 1 1 4 5 7 5
9 12 18 19 17 17 15 9 15 12 10 11 6 6 8 12 8 2 2 4 7 10 15 10 14 17 15 14 10 10 8 8 6 6 5 3 3 3 2 0 3 4 5 7
11 20 16 17 14 12 8 9 11 21 10 5 6 2 6 13 11 9 9 5 7 8 7 12 12 17 18 15 12 12 8 7 6 8 3 5 3 3 2 3 3 5 6 5
11 14 14 15 15 12 12 10 15 22 18 9 13 8 4 3 14 12 13 9 8 10 9 12 9 16 17 16 14 13 13 8 5 5 6 4 3 3 3 3 4 4 4 6
14 13 15 9 14 12 9 7 7 3 5 1 9 9 6 8 11 8 15 14 9 8 6 6 9 8 17 15 13 13 14 9 7 7 7 8 7 5 2 1 3 2 3 4
11 17 11 9 6 6 6 2 3 1 3 7 11 10 4 13 14 15 4 9 12 10 11 7 11 10 13 15 14 13 12 10 7 8 7 8 8 6 5 5 3 3 2 2
7 7 13 4 4 7 7 6 6 8 6 7 6 7 6 8 10 11 8 10 9 7 3 5 13 12 11 14 15 15 13 9 9 8 7 7 7 5 4 5 4 4 4 4
3 10 8 8 7 9 8 8 10 4 7 3 6 5 8 5 7 9 7 7 1 5 4 5 7 12 12 15 17 16 15 14 13 9 7 7 7 7 6 7 7 6 5 3
1 5 12 11 4 0 2 4 6 2 4 4 4 3 8 11 13 13 9 13 8 10 5 8 6 6 14 10 7 6 4 9 15 13 10 7 8 8 6 4 6 7 5 4
7 4 9 8 4 4 2 4 2 1 1 5 6 0 8 9 10 13 13 13 12 11 10 11 9 12 11 10 7 9 8 8 10 6 10 8 7 7 6 6 5 7 9 6
3 4 6 7 4 7 6 6 4 5 5 3 6 1 1 14 12 14 12 13 13 11 7 12 10 9 10 13 7 4 5 9 12 12 10 11 9 7 7 7 6 5 7 8
6 5 5 6 1 5 5 8 7 3 2 5 4 4 5 15 12 13 12 13 11 11 11 12 12 10 10 10 4 4 5 8 8 6 12 8 6 9 7 7 7 6 6 7
5 3 4 4 4 3 4 5 7 2 5 6 3 14 15 16 15 15 11 12 12 12 13 12 11 10 8 7 5 7 5 5 10 4 7 9 10 7 3 6 7 6 6 7
5 3 6 9 8 9 9 9 9 1 11 8 7 11 15 16 17 16 14 13 14 13 12 11 12 10 7 7 7 7 7 9 9 6 5 4 10 4 10 12 7 7 6 6
2 1 9 8 6 6 9 6 6 6 13 10 10 16 14 13 15 17 13 13 14 14 13 11 11 10 10 8 7 6 7 6 8 8 6 7 5 6 6 12 13 5 2 4
3 4 3 6 11 7 6 8 7 5 8 14 13 12 14 16 14 16 13 14 14 11 10 9 9 8 8 6 6 5 6 6 8 5 5 6 5 7 6 2 5 6 7 6
3 2 2 3 7 3 3 10 9 2 12 18 22 16 16 14 15 13 13 13 11 9 8 7 7 7 7 6 7 5 5 5 5 5 5 3 4 5 3 3 2 4 4 4
6 4 2 3 2 8 4 5 5 5 10 20 20 17 18 20 18 11 11 11 10 9 7 5 6 7 7 7 7 7 7 7 7 6 5 4 4 3 2 3 4 4 5 5
7 1 5 4 1 6 1 8 12 4 6 17 22 22 21 13 9 4 9 10 10 10 7 6 7 7 8 7 7 8 7 7 7 6 7 7 6 6 4 2 2 2 4 5
2 3 2 5 4 4 0 5 8 5 4 14 18 17 12 6 6 10 10 9 9 9 7 6 8 7 7 8 8 7 8 7 6 6 6 6 7 7 7 5 3 4 5 5
0 4 3 2 1 2 6 5 5 3 8 14 15 20 16 14 13 11 10 8 8 8 8 8 7 9 9 9 9 8 8 6 7 7 5 5 6 6 6 7 5 6 6 6
2 4 2 4 3 1 6 7 7 8 8 9 12 11 14 12 10 10 8 9 9 9 7 7 7 7 7 8 8 7 7 11 10 10 12 9 6 5 6 5 6 5 6 4
3 5 4 5 5 6 7 8 7 7 8 8 10 9 8 10 10 9 9 8 8 7 7 7 7 7 7 7 7 6 6 6 7 8 9 10 10 12 9 6 5 4 4 4
2 5 3 4 2 3 5 6 6 8 8 9 8 8 9 9 9 10 8 9 7 7 6 6 6 5 6 6 7 7 7 7 6 6 7 9 8 10 11 9 7 8 7 4
5 4 3 4 3 1 3 8 8 8 6 7 6 7 7 8 9 9 8 7 7 6 5 6 6 7 7 7 6 5 6 6 6 6 6 6 6 7 7 8 10 12 13 16
Wind_Direction
236 105 219 243 250 250 258 216 165 152 107 90 235 147 165 199 183 176 183 174 158 151 149 138 139 130 135 138 122 149 132 137 130 114 136 123 158 113 109 138 128 148 142 138
155 217 233 227 243 249 255 267 73 36 132 55 201 138 158 194 202 179 183 176 159 156 155 147 138 144 142 145 141 129 142 138 157 130 107 118 118 91 111 265 165 189 158 155
220 230 223 242 238 247 246 255 182 158 137 116 136 71 187 198 190 188 251 196 158 156 160 159 152 152 150 151 150 140 151 155 159 116 115 78 90 35 77 95 215 181 167 150
220 249 229 234 246 237 244 252 188 133 141 181 174 54 313 213 199 210 213 214 185 179 146 171 174 152 157 159 154 138 152 170 170 149 153 142 166 144 214 226 209 170 169 158
247 241 248 222 242 231 243 143 151 162 186 112 200 121 225 223 193 198 208 215 216 198 180 189 164 153 162 160 161 151 157 176 185 157 157 139 180 154 124 246 161 151 170 165
235 250 244 229 238 235 259 187 167 91 83 92 193 150 202 183 184 192 211 199 213 206 211 199 165 152 159 163 158 154 153 174 185 168 179 137 159 154 162 172 149 159 174 192
230 248 253 249 234 281 286 180 277 273 155 225 208 183 237 175 162 173 180 273 220 206 219 219 162 167 148 163 162 162 154 168 183 174 182 158 169 186 191 160 153 182 200 216
210 253 248 210 222 228 251 196 175 206 191 216 110 142 249 185 145 149 136 243 292 288 14 316 173 177 160 162 165 172 166 161 175 176 190 182 170 156 204 180 176 232 197 178
282 225 237 171 194 223 287 229 229 294 273 143 110 50 39 106 97 104 126 151 289 335 303 282 319 186 181 174 172 173 173 179 175 180 186 181 182 194 199 223 176 194 163 139
329 323 298 188 149 330 110 314 4 353 282 72 88 150 156 170 140 105 92 95 62 33 53 60 97 32 55 12 99 137 116 197 183 185 183 191 186 196 214 236 191 160 148 139
69 351 293 132 163 133 322 303 296 89 237 140 146 94 344 121 107 98 89 87 72 58 44 98 87 68 71 69 356 72 43 34 4 222 183 185 194 199 192 223 243 164 141 175
352 264 281 236 275 181 244 250 220 137 300 86 113 78 345 89 96 89 80 88 82 71 62 69 84 92 80 90 35 7 64 61 48 343 319 201 185 185 193 205 230 195 156 172
351 312 346 302 145 278 236 263 271 291 67 178 94 151 151 91 93 97 90 100 94 91 74 72 71 69 58 72 44 85 85 106 61 357 10 346 229 187 194 196 206 208 172 178
150 329 150 213 259 320 219 253 271 238 63 70 11 131 145 130 127 113 103 103 103 95 89 89 76 66 62 67 51 50 61 91 94 92 28 3 1 359 295 188 198 207 197 187
103 338 336 250 262 343 341 215 249 224 137 132 182 135 148 139 132 121 119 115 106 102 104 98 103 103 93 78 63 53 60 64 74 87 79 360 9 310 42 5 279 214 217 202
351 276 325 324 337 347 342 304 213 8 107 118 92 101 124 121 118 111 113 115 104 98 90 96 103 112 105 97 88 84 62 68 73 63 54 46 20 6 61 8 319 21 239 242
81 98 247 285 321 330 351 352 46 18 88 128 141 152 146 140 132 125 127 104 93 91 87 75 75 70 62 88 103 88 91 84 78 88 66 42 48 31 55 251 356 354 348 346
50 24 26 314 345 306 293 20 353 78 109 106 113 141 143 138 121 110 108 109 101 87 77 83 83 71 71 60 48 132 120 105 99 86 88 94 57 59 27 26 343 328 325 351
1 349 18 162 314 295 348 22 6 57 100 124 130 144 117 111 101 94 103 101 110 100 84 71 96 99 66 63 37 60 78 74 58 39 37 50 61 43 352 3 354 322 327 329
342 297 108 346 9 206 299 12 346 342 120 127 126 128 131 133 114 145 114 105 95 91 82 66 66 76 60 46 46 48 52 55 48 30 10 360 11 4 353 79 312 258 272 303
36 355 198 265 244 92 285 20 320 65 260 151 137 142 136 102 144 137 100 92 102 116 109 83 70 74 61 38 45 50 50 37 17 15 3 2 354 342 345 341 320 322 314 300
274 152 237 275 13 78 349 23 66 182 40 76 86 105 107 104 99 101 103 93 93 85 76 66 67 61 58 48 45 31 21 356 10 354 350 344 337 327 321 316 307 311 309 307
11 115 151 101 133 64 55 98 61 65 73 68 90 99 109 111 108 107 105 92 80 71 66 64 64 66 49 47 51 41 24 13 357 0 354 333 310 300 297 306 301 304 292 302
334 8 93 69 12 92 70 56 72 80 74 69 86 75 92 109 108 107 99 91 88 73 63 57 63 59 54 51 42 38 40 22 18 7 349 339 345 345 332 312 302 304 315 342
189 24 41 13 149 110 100 97 90 78 86 85 91 97 100 102 106 109 101 97 95 90 84 77 71 60 60 46 48 32 25 19 8 2 355 358 352 354 342 342 337 333 321 340
358 25 85 210 290 60 192 147 124 120 115 110 113 93 89 104 100 100 106 109 105 112 94 86 71 69 55 50 36 27 27 32 17 357 356 351 349 331 332 331 330 332 329 334